AAL700 KDFW-KDCA

Flight info

Callsign AAL700
Flight time 2h 17m
Altitude 35000
Route TRYTN4 LOOSE Q34 DITZL/N0452F370 Q34 SITTR TRUPS5
Aircraft A321/M-SDE3FGHIRWY/LB1

Departure

Time 2026-04-19 23:47
Airport Dallas Fort Worth International Airport (KDFW)

Arrival

Time 2026-04-20 02:05
Airport Ronald Reagan Washington National Airport (KDCA)
Time Latitude Longitude Altitude Speed Heading
2026-04-19 23:23 32.89636 -97.03505 580 ft 0 kts 290°
2026-04-19 23:35 32.89635 -97.03503 581 ft 1 kts 290°
2026-04-19 23:35 32.89628 -97.03488 580 ft 2 kts 315°
2026-04-19 23:36 32.89616 -97.03477 580 ft 2 kts 334°
2026-04-19 23:36 32.89601 -97.03472 580 ft 2 kts 354°
2026-04-19 23:36 32.89587 -97.03473 580 ft 2 kts 14°
2026-04-19 23:36 32.89573 -97.03479 580 ft 1 kts 34°
2026-04-19 23:37 32.89568 -97.03484 580 ft 0 kts 40°
2026-04-19 23:40 32.89569 -97.03483 580 ft 0 kts 40°
2026-04-19 23:40 32.89578 -97.03474 580 ft 3 kts 40°
2026-04-19 23:40 32.89602 -97.03448 580 ft 6 kts 48°
2026-04-19 23:40 32.89613 -97.03387 579 ft 9 kts 90°
2026-04-19 23:41 32.89613 -97.03291 577 ft 13 kts 88°
2026-04-19 23:41 32.89623 -97.03203 575 ft 9 kts 46°
2026-04-19 23:41 32.89700 -97.03192 576 ft 12 kts 358°
2026-04-19 23:41 32.89790 -97.03194 576 ft 13 kts
2026-04-19 23:42 32.89892 -97.03193 577 ft 15 kts 360°
2026-04-19 23:42 32.90006 -97.03194 577 ft 17 kts
2026-04-19 23:42 32.90126 -97.03193 579 ft 17 kts 360°
2026-04-19 23:42 32.90258 -97.03193 579 ft 19 kts 360°
2026-04-19 23:43 32.90393 -97.03192 580 ft 19 kts
2026-04-19 23:43 32.90532 -97.03191 580 ft 20 kts 360°
2026-04-19 23:43 32.90666 -97.03191 580 ft 19 kts
2026-04-19 23:43 32.90807 -97.03189 579 ft 19 kts
2026-04-19 23:44 32.90937 -97.03189 579 ft 18 kts 357°
2026-04-19 23:44 32.91051 -97.03188 579 ft 17 kts
2026-04-19 23:44 32.91182 -97.03186 577 ft 18 kts 358°
2026-04-19 23:44 32.91312 -97.03188 576 ft 17 kts
2026-04-19 23:45 32.91433 -97.03185 575 ft 12 kts 358°
2026-04-19 23:45 32.91528 -97.03182 574 ft 11 kts 14°
2026-04-19 23:45 32.91563 -97.03107 572 ft 9 kts 97°
2026-04-19 23:45 32.91558 -97.03020 571 ft 9 kts 102°
2026-04-19 23:46 32.91504 -97.02987 571 ft 10 kts 183°
2026-04-19 23:46 32.91497 -97.02987 571 ft 0 kts 181°
2026-04-19 23:46 32.91493 -97.02987 571 ft 3 kts 181°
2026-04-19 23:46 32.91331 -97.02988 572 ft 56 kts 179°
2026-04-19 23:47 32.90690 -97.02984 576 ft 123 kts 181°
2026-04-19 23:47 32.89635 -97.02989 610 ft 173 kts 176°
2026-04-19 23:47 32.88444 -97.02950 1177 ft 174 kts 173°
2026-04-19 23:47 32.87236 -97.02866 1835 ft 175 kts 172°
2026-04-19 23:48 32.86056 -97.02777 2571 ft 167 kts 172°
2026-04-19 23:48 32.84893 -97.02669 2983 ft 171 kts 171°
2026-04-19 23:48 32.83695 -97.02452 3335 ft 176 kts 158°
2026-04-19 23:48 32.82532 -97.01910 3731 ft 182 kts 154°
2026-04-19 23:49 32.81365 -97.01251 4101 ft 191 kts 151°
2026-04-19 23:49 32.80138 -97.00477 4383 ft 208 kts 149°
2026-04-19 23:49 32.78838 -96.99619 4768 ft 221 kts 146°
2026-04-19 23:49 32.77737 -96.98302 5192 ft 232 kts 117°
2026-04-19 23:50 32.77216 -96.96464 5608 ft 246 kts 107°
2026-04-19 23:50 32.76762 -96.94424 6056 ft 260 kts 104°
2026-04-19 23:50 32.76516 -96.92298 6617 ft 269 kts 93°
2026-04-19 23:50 32.76562 -96.90055 7285 ft 275 kts 88°
2026-04-19 23:51 32.76669 -96.87772 7966 ft 279 kts 87°
2026-04-19 23:51 32.76772 -96.85487 8630 ft 283 kts 87°
2026-04-19 23:51 32.76992 -96.83127 9273 ft 289 kts 80°
2026-04-19 23:51 32.77451 -96.80823 9918 ft 293 kts 73°
2026-04-19 23:52 32.78043 -96.78506 10482 ft 300 kts 71°
2026-04-19 23:52 32.78686 -96.76077 10790 ft 317 kts 71°
2026-04-19 23:52 32.79369 -96.73502 11081 ft 333 kts 71°
2026-04-19 23:52 32.80073 -96.70826 11361 ft 348 kts 71°
2026-04-19 23:53 32.80798 -96.68040 11784 ft 358 kts 71°
2026-04-19 23:53 32.81525 -96.65235 12379 ft 361 kts 71°
2026-04-19 23:53 32.82267 -96.62358 12972 ft 365 kts 71°
2026-04-19 23:53 32.83014 -96.59460 13524 ft 369 kts 71°
2026-04-19 23:54 32.83763 -96.56563 14075 ft 373 kts 71°
2026-04-19 23:54 32.84523 -96.53611 14598 ft 378 kts 70°
2026-04-19 23:54 32.85298 -96.50597 15124 ft 382 kts 70°
2026-04-19 23:54 32.86069 -96.47591 15627 ft 387 kts 70°
2026-04-19 23:55 32.86859 -96.44513 16125 ft 391 kts 70°
2026-04-19 23:55 32.87656 -96.41400 16652 ft 395 kts 69°
2026-04-19 23:55 32.88452 -96.38295 17102 ft 399 kts 69°
2026-04-19 23:55 32.89263 -96.35128 17577 ft 403 kts 69°
2026-04-19 23:56 32.90162 -96.31970 18052 ft 405 kts 66°
2026-04-19 23:56 32.91173 -96.28814 18549 ft 409 kts 65°
2026-04-19 23:56 32.92197 -96.25679 18966 ft 413 kts 65°
2026-04-19 23:56 32.93244 -96.22482 19389 ft 417 kts 65°
2026-04-19 23:57 32.94296 -96.19257 19796 ft 421 kts 65°
2026-04-19 23:57 32.95351 -96.16009 20194 ft 425 kts 65°
2026-04-19 23:57 32.96417 -96.12712 20629 ft 428 kts 65°
2026-04-19 23:57 32.97491 -96.09392 21016 ft 432 kts 64°
2026-04-19 23:58 32.98561 -96.06083 21388 ft 436 kts 64°
2026-04-19 23:58 32.99660 -96.02673 21789 ft 439 kts 64°
2026-04-19 23:58 33.00748 -95.99294 22217 ft 441 kts 64°
2026-04-19 23:58 33.01849 -95.95877 22599 ft 445 kts 64°
2026-04-19 23:59 33.02959 -95.92423 22981 ft 448 kts 64°
2026-04-19 23:59 33.04065 -95.88975 23354 ft 451 kts 64°
2026-04-19 23:59 33.05186 -95.85483 23709 ft 455 kts 64°
2026-04-19 23:59 33.06325 -95.81930 24075 ft 458 kts 64°
2026-04-20 00:00 33.07461 -95.78402 24424 ft 461 kts 64°
2026-04-20 00:00 33.08611 -95.74825 24770 ft 464 kts 64°
2026-04-20 00:00 33.09754 -95.71259 25084 ft 468 kts 64°
2026-04-20 00:00 33.10925 -95.67602 25422 ft 471 kts 64°
2026-04-20 00:01 33.12095 -95.63947 25765 ft 474 kts 64°
2026-04-20 00:01 33.13266 -95.60284 26085 ft 477 kts 64°
2026-04-20 00:01 33.15633 -95.52861 26718 ft 483 kts 64°
2026-04-20 00:02 33.16828 -95.49101 27038 ft 485 kts 64°
2026-04-20 00:02 33.18013 -95.45377 27320 ft 489 kts 64°
2026-04-20 00:02 33.19232 -95.41540 27594 ft 492 kts 64°
2026-04-20 00:02 33.20433 -95.37761 27849 ft 496 kts 64°
2026-04-20 00:03 33.21663 -95.33879 28092 ft 500 kts 64°
2026-04-20 00:03 33.22884 -95.30021 28351 ft 502 kts 64°
2026-04-20 00:03 33.24126 -95.26085 28609 ft 505 kts 64°
2026-04-20 00:03 33.25359 -95.22173 28880 ft 507 kts 64°
2026-04-20 00:04 33.26595 -95.18248 29173 ft 508 kts 64°
2026-04-20 00:04 33.27845 -95.14275 29477 ft 509 kts 64°
2026-04-20 00:04 33.29083 -95.10333 29826 ft 509 kts 64°
2026-04-20 00:04 33.30307 -95.06428 30163 ft 509 kts 64°
2026-04-20 00:05 33.31556 -95.02451 30458 ft 510 kts 64°
2026-04-20 00:05 33.32791 -94.98504 30738 ft 511 kts 64°
2026-04-20 00:05 33.34036 -94.94524 31027 ft 512 kts 64°
2026-04-20 00:05 33.35274 -94.90560 31293 ft 514 kts 64°
2026-04-20 00:06 33.36527 -94.86549 31546 ft 515 kts 64°
2026-04-20 00:06 33.37768 -94.82560 31814 ft 516 kts 64°
2026-04-20 00:06 33.39016 -94.78552 32117 ft 516 kts 64°
2026-04-20 00:06 33.40278 -94.74487 32364 ft 518 kts 64°
2026-04-20 00:07 33.41519 -94.70481 32626 ft 519 kts 64°
2026-04-20 00:07 33.42767 -94.66455 32930 ft 519 kts 64°
2026-04-20 00:07 33.44024 -94.62392 33216 ft 519 kts 64°
2026-04-20 00:07 33.45275 -94.58343 33485 ft 520 kts 64°
2026-04-20 00:08 33.46527 -94.54295 33708 ft 521 kts 64°
2026-04-20 00:08 33.47771 -94.50253 33895 ft 524 kts 64°
2026-04-20 00:08 33.49017 -94.46197 34102 ft 524 kts 64°
2026-04-20 00:08 33.50281 -94.42084 34325 ft 525 kts 64°
2026-04-20 00:09 33.51543 -94.37963 34534 ft 526 kts 64°
2026-04-20 00:09 33.52784 -94.33915 34739 ft 526 kts 64°
2026-04-20 00:09 33.54056 -94.29763 34890 ft 527 kts 65°
2026-04-20 00:09 33.55301 -94.25683 35047 ft 528 kts 65°
2026-04-20 00:10 33.56556 -94.21516 35215 ft 529 kts 65°
2026-04-20 00:10 33.59018 -94.13256 35254 ft 530 kts 65°
2026-04-20 00:11 33.61475 -94.04979 35261 ft 530 kts 65°
2026-04-20 00:11 33.63934 -93.96679 35267 ft 528 kts 65°
2026-04-20 00:12 33.66391 -93.88366 35254 ft 527 kts 64°
2026-04-20 00:12 33.68836 -93.80088 35269 ft 528 kts 65°
2026-04-20 00:13 33.71265 -93.71827 35261 ft 527 kts 65°
2026-04-20 00:13 33.73677 -93.63593 35242 ft 526 kts 65°
2026-04-20 00:14 33.76104 -93.55298 35251 ft 526 kts 65°
2026-04-20 00:14 33.78521 -93.47006 35248 ft 526 kts 65°
2026-04-20 00:15 33.80924 -93.38736 35256 ft 525 kts 64°
2026-04-20 00:15 33.83317 -93.30486 35243 ft 524 kts 65°
2026-04-20 00:16 33.85700 -93.22245 35253 ft 524 kts 65°
2026-04-20 00:16 33.88062 -93.14042 35241 ft 523 kts 65°
2026-04-20 00:17 33.90610 -93.05875 35251 ft 518 kts 60°
2026-04-20 00:17 33.93526 -92.98018 35257 ft 516 kts 59°
2026-04-20 00:18 33.96493 -92.90133 35262 ft 516 kts 59°
2026-04-20 00:18 33.99414 -92.82282 35245 ft 517 kts 59°
2026-04-20 00:19 34.02320 -92.74421 35257 ft 516 kts 59°
2026-04-20 00:19 34.05231 -92.66518 35260 ft 516 kts 59°
2026-04-20 00:20 34.08154 -92.58641 35256 ft 515 kts 58°
2026-04-20 00:20 34.11082 -92.50825 35258 ft 515 kts 59°
2026-04-20 00:21 34.14017 -92.42945 35262 ft 516 kts 58°
2026-04-20 00:21 34.16937 -92.35070 35263 ft 515 kts 59°
2026-04-20 00:22 34.19859 -92.27171 35260 ft 516 kts 59°
2026-04-20 00:22 34.22764 -92.19310 35260 ft 516 kts 59°
2026-04-20 00:23 34.25676 -92.11413 35260 ft 515 kts 59°
2026-04-20 00:23 34.28570 -92.03535 35260 ft 515 kts 59°
2026-04-20 00:24 34.31477 -91.95608 35263 ft 515 kts 59°
2026-04-20 00:24 34.34358 -91.87732 35262 ft 516 kts 59°
2026-04-20 00:25 34.37249 -91.79795 35256 ft 516 kts 59°
2026-04-20 00:25 34.40130 -91.71886 35256 ft 517 kts 59°
2026-04-20 00:26 34.43015 -91.63934 35259 ft 516 kts 59°
2026-04-20 00:26 34.45887 -91.56000 35263 ft 516 kts 59°
2026-04-20 00:27 34.48765 -91.48038 35263 ft 517 kts 59°
2026-04-20 00:27 34.51633 -91.40075 35263 ft 517 kts 59°
2026-04-20 00:28 34.54483 -91.32143 35259 ft 517 kts 59°
2026-04-20 00:28 34.57351 -91.24145 35260 ft 517 kts 59°
2026-04-20 00:29 34.60204 -91.16167 35260 ft 517 kts 59°
2026-04-20 00:29 34.63051 -91.08185 35260 ft 517 kts 59°
2026-04-20 00:30 34.65898 -91.00181 35262 ft 517 kts 59°
2026-04-20 00:30 34.68734 -90.92192 35258 ft 518 kts 59°
2026-04-20 00:31 34.71579 -90.84152 35253 ft 518 kts 59°
2026-04-20 00:31 34.74403 -90.76156 35248 ft 518 kts 59°
2026-04-20 00:32 34.77248 -90.68079 35251 ft 519 kts 59°
2026-04-20 00:32 34.80074 -90.60032 35249 ft 518 kts 59°
2026-04-20 00:33 34.82884 -90.52016 35248 ft 519 kts 59°
2026-04-20 00:33 34.85706 -90.43935 35253 ft 519 kts 59°
2026-04-20 00:34 34.88507 -90.35909 35247 ft 520 kts 59°
2026-04-20 00:34 34.91324 -90.27810 35243 ft 521 kts 60°
2026-04-20 00:35 34.94146 -90.19663 35245 ft 520 kts 60°
2026-04-20 00:35 34.96940 -90.11590 35248 ft 521 kts 60°
2026-04-20 00:36 34.99741 -90.03469 35254 ft 522 kts 60°
2026-04-20 00:36 35.02570 -89.95301 35256 ft 520 kts 59°
2026-04-20 00:37 35.05465 -89.87257 35259 ft 520 kts 58°
2026-04-20 00:37 35.08354 -89.79243 35259 ft 520 kts 59°
2026-04-20 00:38 35.11239 -89.71186 35257 ft 519 kts 59°
2026-04-20 00:38 35.14120 -89.63107 35259 ft 521 kts 59°
2026-04-20 00:39 35.16989 -89.55021 35261 ft 519 kts 59°
2026-04-20 00:39 35.19839 -89.46980 35262 ft 519 kts 59°
2026-04-20 00:40 35.22698 -89.38897 35264 ft 519 kts 59°
2026-04-20 00:40 35.25545 -89.30827 35260 ft 519 kts 59°
2026-04-20 00:41 35.28406 -89.22694 35258 ft 520 kts 60°
2026-04-20 00:41 35.31244 -89.14598 35256 ft 520 kts 60°
2026-04-20 00:42 35.34080 -89.06479 35250 ft 519 kts 60°
2026-04-20 00:42 35.36912 -88.98383 35247 ft 518 kts 60°
2026-04-20 00:43 35.39737 -88.90281 35249 ft 519 kts 60°
2026-04-20 00:43 35.42559 -88.82159 35250 ft 518 kts 60°
2026-04-20 00:44 35.45364 -88.74064 35250 ft 519 kts 60°
2026-04-20 00:44 35.48166 -88.65954 35251 ft 518 kts 60°
2026-04-20 00:45 35.50948 -88.57878 35251 ft 518 kts 60°
2026-04-20 00:45 35.53741 -88.49756 35248 ft 519 kts 60°
2026-04-20 00:46 35.56524 -88.41627 35248 ft 518 kts 60°
2026-04-20 00:46 35.59326 -88.33438 35246 ft 518 kts 61°
2026-04-20 00:47 35.62106 -88.25285 35253 ft 519 kts 61°
2026-04-20 00:47 35.64884 -88.17108 35256 ft 520 kts 61°
2026-04-20 00:48 35.67636 -88.08979 35257 ft 519 kts 61°
2026-04-20 00:48 35.70405 -88.00787 35257 ft 519 kts 61°
2026-04-20 00:49 35.73158 -87.92612 35252 ft 519 kts 61°
2026-04-20 00:49 35.75905 -87.84450 35244 ft 519 kts 61°
2026-04-20 00:50 35.78642 -87.76279 35241 ft 520 kts 61°
2026-04-20 00:50 35.81371 -87.68039 35240 ft 520 kts 61°
2026-04-20 00:51 35.84071 -87.59837 35235 ft 519 kts 62°
2026-04-20 00:51 35.86762 -87.51640 35234 ft 518 kts 62°
2026-04-20 00:52 35.89469 -87.43381 35234 ft 518 kts 61°
2026-04-20 00:52 35.92145 -87.35197 35230 ft 517 kts 62°
2026-04-20 00:53 35.94816 -87.27013 35227 ft 519 kts 62°
2026-04-20 00:53 35.97495 -87.18766 35231 ft 519 kts 62°
2026-04-20 00:54 36.00177 -87.10494 35228 ft 518 kts 62°
2026-04-20 00:54 36.02838 -87.02261 35236 ft 520 kts 62°
2026-04-20 00:55 36.05487 -86.94035 35243 ft 519 kts 62°
2026-04-20 00:55 36.08149 -86.85757 35249 ft 519 kts 62°
2026-04-20 00:56 36.10811 -86.77457 35253 ft 520 kts 63°
2026-04-20 00:56 36.13453 -86.69183 35255 ft 520 kts 62°
2026-04-20 00:57 36.16119 -86.60943 35252 ft 520 kts 62°
2026-04-20 00:57 36.18827 -86.52620 35254 ft 520 kts 62°
2026-04-20 00:58 36.21497 -86.44381 35251 ft 519 kts 62°
2026-04-20 00:58 36.24168 -86.36105 35257 ft 520 kts 62°
2026-04-20 00:59 36.26837 -86.27808 35256 ft 520 kts 63°
2026-04-20 00:59 36.28169 -86.23656 35468 ft 521 kts 63°
2026-04-20 00:59 36.29502 -86.19500 35350 ft 519 kts 63°
2026-04-20 01:00 36.32140 -86.11245 35272 ft 518 kts 63°
2026-04-20 01:00 36.34793 -86.02934 35255 ft 519 kts 63°
2026-04-20 01:01 36.37437 -85.94624 35245 ft 519 kts 63°
2026-04-20 01:01 36.40063 -85.86339 35244 ft 519 kts 63°
2026-04-20 01:02 36.42698 -85.78005 35241 ft 519 kts 63°
2026-04-20 01:02 36.45311 -85.69720 35244 ft 519 kts 63°
2026-04-20 01:03 36.47943 -85.61347 35243 ft 520 kts 63°
2026-04-20 01:03 36.50553 -85.53030 35239 ft 520 kts 63°
2026-04-20 01:04 36.53157 -85.44697 35240 ft 520 kts 63°
2026-04-20 01:04 36.55767 -85.36319 35240 ft 520 kts 63°
2026-04-20 01:05 36.58358 -85.27979 35241 ft 520 kts 64°
2026-04-20 01:05 36.60960 -85.19579 35241 ft 519 kts 64°
2026-04-20 01:06 36.63526 -85.11269 35241 ft 520 kts 64°
2026-04-20 01:06 36.66118 -85.02865 35238 ft 519 kts 64°
2026-04-20 01:07 36.68691 -84.94480 35236 ft 520 kts 64°
2026-04-20 01:07 36.71264 -84.86080 35235 ft 520 kts 64°
2026-04-20 01:08 36.73809 -84.77734 35241 ft 521 kts 64°
2026-04-20 01:08 36.76379 -84.69286 35241 ft 520 kts 64°
2026-04-20 01:09 36.78922 -84.60904 35240 ft 521 kts 65°
2026-04-20 01:09 36.81466 -84.52495 35239 ft 521 kts 65°
2026-04-20 01:10 36.84010 -84.44064 35240 ft 522 kts 65°
2026-04-20 01:10 36.87841 -84.31316 35236 ft 522 kts 65°
2026-04-20 01:11 36.90356 -84.22902 35242 ft 522 kts 65°
2026-04-20 01:11 36.92882 -84.14441 35239 ft 522 kts 66°
2026-04-20 01:12 36.95410 -84.05933 35242 ft 522 kts 66°
2026-04-20 01:12 36.97935 -83.97427 35236 ft 523 kts 66°
2026-04-20 01:13 37.00440 -83.88953 35231 ft 523 kts 66°
2026-04-20 01:13 37.02956 -83.80421 35230 ft 524 kts 66°
2026-04-20 01:14 37.05462 -83.71893 35228 ft 524 kts 66°
2026-04-20 01:14 37.07968 -83.63334 35221 ft 524 kts 66°
2026-04-20 01:15 37.10457 -83.54807 35215 ft 525 kts 66°
2026-04-20 01:15 37.12953 -83.46227 35209 ft 525 kts 66°
2026-04-20 01:16 37.15447 -83.37632 35203 ft 525 kts 66°
2026-04-20 01:16 37.17920 -83.29088 35205 ft 526 kts 67°
2026-04-20 01:17 37.20408 -83.20458 35206 ft 526 kts 67°
2026-04-20 01:17 37.22870 -83.11883 35207 ft 527 kts 67°
2026-04-20 01:18 37.25344 -83.03246 35203 ft 527 kts 67°
2026-04-20 01:18 37.27816 -82.94597 35198 ft 528 kts 68°
2026-04-20 01:19 37.30267 -82.85985 35195 ft 528 kts 67°
2026-04-20 01:19 37.32734 -82.77284 35188 ft 528 kts 68°
2026-04-20 01:20 37.35179 -82.68642 35189 ft 528 kts 68°
2026-04-20 01:20 37.37629 -82.59948 35189 ft 528 kts 67°
2026-04-20 01:21 37.40056 -82.51311 35191 ft 528 kts 68°
2026-04-20 01:21 37.42491 -82.42615 35193 ft 529 kts 68°
2026-04-20 01:22 37.44926 -82.33894 35190 ft 528 kts 68°
2026-04-20 01:22 37.47353 -82.25174 35186 ft 529 kts 69°
2026-04-20 01:23 37.49762 -82.16471 35189 ft 529 kts 69°
2026-04-20 01:23 37.52172 -82.07755 35191 ft 530 kts 69°
2026-04-20 01:24 37.54579 -81.99023 35191 ft 529 kts 68°
2026-04-20 01:24 37.56986 -81.90265 35192 ft 530 kts 69°
2026-04-20 01:25 37.59375 -81.81529 35190 ft 530 kts 69°
2026-04-20 01:25 37.61770 -81.72756 35181 ft 531 kts 69°
2026-04-20 01:26 37.64158 -81.63964 35177 ft 531 kts 69°
2026-04-20 01:26 37.66533 -81.55192 35168 ft 531 kts 69°
2026-04-20 01:27 37.68906 -81.46398 35162 ft 531 kts 69°
2026-04-20 01:27 37.71275 -81.37600 35168 ft 532 kts 69°
2026-04-20 01:28 37.73637 -81.28794 35161 ft 532 kts 70°
2026-04-20 01:28 37.76006 -81.19912 35170 ft 533 kts 70°
2026-04-20 01:29 37.78449 -81.11164 35166 ft 532 kts 66°
2026-04-20 01:29 37.81424 -81.02595 35172 ft 532 kts 63°
2026-04-20 01:30 37.84470 -80.94115 35153 ft 531 kts 64°
2026-04-20 01:30 37.87487 -80.85596 35146 ft 532 kts 64°
2026-04-20 01:31 37.90496 -80.77092 35137 ft 532 kts 63°
2026-04-20 01:31 37.93536 -80.68572 35135 ft 533 kts 64°
2026-04-20 01:32 37.96557 -80.60060 35142 ft 534 kts 63°
2026-04-20 01:32 37.99582 -80.51498 35153 ft 534 kts 64°
2026-04-20 01:33 38.02599 -80.42937 35152 ft 535 kts 64°
2026-04-20 01:33 38.05623 -80.34332 35138 ft 535 kts 64°
2026-04-20 01:34 38.08634 -80.25732 35134 ft 535 kts 64°
2026-04-20 01:34 38.11680 -80.17145 35112 ft 537 kts 64°
2026-04-20 01:35 38.14748 -80.08529 35110 ft 537 kts 64°
2026-04-20 01:35 38.17807 -79.99895 35116 ft 537 kts 65°
2026-04-20 01:36 38.20828 -79.91333 35119 ft 536 kts 64°
2026-04-20 01:36 38.23869 -79.82682 35114 ft 537 kts 65°
2026-04-20 01:37 38.26914 -79.73998 35107 ft 537 kts 65°
2026-04-20 01:37 38.29894 -79.65390 35121 ft 537 kts 65°
2026-04-20 01:38 38.32896 -79.56645 34801 ft 538 kts 65°
2026-04-20 01:38 38.34373 -79.52339 34367 ft 537 kts 65°
2026-04-20 01:38 38.35878 -79.47945 33771 ft 539 kts 65°
2026-04-20 01:39 38.37365 -79.43599 33108 ft 544 kts 65°
2026-04-20 01:39 38.38860 -79.39201 32336 ft 551 kts 65°
2026-04-20 01:39 38.40397 -79.34692 31446 ft 557 kts 66°
2026-04-20 01:39 38.41813 -79.30102 30616 ft 559 kts 70°
2026-04-20 01:40 38.42984 -79.25371 29725 ft 560 kts 75°
2026-04-20 01:40 38.43900 -79.20625 28863 ft 558 kts 78°
2026-04-20 01:40 38.44722 -79.15827 28152 ft 553 kts 79°
2026-04-20 01:40 38.45517 -79.11049 27546 ft 546 kts 79°
2026-04-20 01:41 38.46309 -79.06367 27103 ft 536 kts 78°
2026-04-20 01:41 38.47092 -79.01843 26693 ft 525 kts 78°
2026-04-20 01:41 38.47888 -78.97292 26231 ft 516 kts 78°
2026-04-20 01:41 38.48654 -78.92892 25802 ft 508 kts 78°
2026-04-20 01:42 38.49411 -78.88548 25402 ft 499 kts 78°
2026-04-20 01:42 38.50145 -78.84295 24872 ft 494 kts 78°
2026-04-20 01:42 38.50835 -78.80048 24340 ft 489 kts 79°
2026-04-20 01:42 38.51495 -78.75787 23832 ft 484 kts 78°
2026-04-20 01:43 38.52137 -78.71624 23332 ft 479 kts 78°
2026-04-20 01:43 38.52787 -78.67450 22834 ft 474 kts 78°
2026-04-20 01:43 38.53425 -78.63402 22350 ft 470 kts 78°
2026-04-20 01:43 38.54076 -78.59325 21878 ft 465 kts 78°
2026-04-20 01:44 38.54721 -78.55309 21407 ft 460 kts 78°
2026-04-20 01:44 38.55347 -78.51373 20938 ft 456 kts 78°
2026-04-20 01:44 38.55974 -78.47427 20462 ft 452 kts 78°
2026-04-20 01:44 38.56593 -78.43515 20007 ft 448 kts 77°
2026-04-20 01:45 38.57207 -78.39619 19539 ft 444 kts 77°
2026-04-20 01:45 38.57846 -78.35813 19079 ft 441 kts 76°
2026-04-20 01:45 38.58517 -78.32014 18610 ft 438 kts 76°
2026-04-20 01:45 38.59159 -78.28368 18166 ft 434 kts 76°
2026-04-20 01:46 38.59920 -78.24673 17720 ft 429 kts 70°
2026-04-20 01:46 38.60897 -78.21088 17257 ft 424 kts 65°
2026-04-20 01:46 38.62007 -78.17615 16799 ft 420 kts 63°
2026-04-20 01:46 38.63142 -78.14208 16354 ft 417 kts 63°
2026-04-20 01:47 38.64261 -78.10829 15899 ft 414 kts 64°
2026-04-20 01:47 38.65364 -78.07443 15453 ft 411 kts 63°
2026-04-20 01:47 38.66442 -78.04096 15020 ft 409 kts 63°
2026-04-20 01:47 38.67525 -78.00728 14549 ft 405 kts 63°
2026-04-20 01:48 38.68586 -77.97414 14117 ft 402 kts 63°
2026-04-20 01:48 38.69636 -77.94135 13644 ft 399 kts 62°
2026-04-20 01:48 38.70676 -77.90880 13317 ft 391 kts 62°
2026-04-20 01:48 38.71687 -77.87710 13085 ft 380 kts 62°
2026-04-20 01:49 38.72669 -77.84650 12969 ft 365 kts 60°
2026-04-20 01:49 38.73848 -77.81918 12870 ft 343 kts 47°
2026-04-20 01:49 38.75301 -77.79595 12607 ft 331 kts 40°
2026-04-20 01:49 38.76857 -77.77422 12229 ft 327 kts 38°
2026-04-20 01:50 38.78392 -77.75301 11863 ft 325 kts 38°
2026-04-20 01:50 38.79903 -77.73184 11489 ft 322 kts 39°
2026-04-20 01:50 38.81375 -77.71043 11123 ft 322 kts 43°
2026-04-20 01:50 38.82622 -77.68652 10848 ft 322 kts 53°
2026-04-20 01:51 38.83601 -77.66118 10835 ft 317 kts 57°
2026-04-20 01:51 38.84524 -77.63540 10545 ft 318 kts 58°
2026-04-20 01:51 38.85424 -77.60992 10190 ft 316 kts 58°
2026-04-20 01:51 38.86332 -77.58443 9837 ft 313 kts 58°
2026-04-20 01:52 38.87236 -77.55932 9487 ft 310 kts 58°
2026-04-20 01:52 38.88140 -77.53436 9133 ft 307 kts 58°
2026-04-20 01:52 38.89032 -77.50976 8786 ft 305 kts 58°
2026-04-20 01:52 38.89929 -77.48502 8435 ft 303 kts 58°
2026-04-20 01:53 38.90728 -77.46003 8051 ft 306 kts 71°
2026-04-20 01:53 38.90689 -77.43285 7745 ft 311 kts 105°
2026-04-20 01:53 38.89770 -77.40801 7459 ft 311 kts 122°
2026-04-20 01:53 38.88599 -77.38505 7129 ft 309 kts 124°
2026-04-20 01:54 38.87432 -77.36210 6786 ft 307 kts 122°
2026-04-20 01:54 38.86327 -77.33878 6437 ft 305 kts 121°
2026-04-20 01:54 38.85263 -77.31511 6098 ft 302 kts 120°
2026-04-20 01:54 38.84240 -77.29198 5983 ft 298 kts 120°
2026-04-20 01:55 38.83202 -77.26884 5982 ft 299 kts 120°
2026-04-20 01:55 38.82169 -77.24592 5980 ft 299 kts 120°
2026-04-20 01:55 38.81119 -77.22264 5981 ft 300 kts 120°
2026-04-20 01:55 38.80082 -77.19964 5980 ft 301 kts 120°
2026-04-20 01:56 38.79030 -77.17632 5982 ft 301 kts 120°
2026-04-20 01:56 38.77985 -77.15317 5981 ft 301 kts 120°
2026-04-20 01:56 38.76920 -77.13021 5979 ft 300 kts 125°
2026-04-20 01:56 38.75415 -77.11262 5960 ft 293 kts 158°
2026-04-20 01:57 38.73507 -77.10691 5916 ft 278 kts 183°
2026-04-20 01:57 38.71615 -77.10714 5748 ft 266 kts 188°
2026-04-20 01:57 38.69790 -77.10800 5578 ft 258 kts 187°
2026-04-20 01:57 38.68031 -77.10823 5416 ft 251 kts 185°
2026-04-20 01:58 38.66293 -77.10785 5164 ft 247 kts 184°
2026-04-20 01:58 38.64592 -77.10402 4791 ft 255 kts 159°
2026-04-20 01:58 38.63204 -77.09012 4444 ft 257 kts 126°
2026-04-20 01:58 38.62546 -77.06965 4196 ft 247 kts 93°
2026-04-20 01:59 38.62548 -77.04806 3872 ft 244 kts 82°
2026-04-20 01:59 38.62710 -77.02661 3522 ft 243 kts 80°
2026-04-20 01:59 38.63045 -77.00564 3186 ft 236 kts 59°
2026-04-20 01:59 38.64128 -76.99178 2971 ft 213 kts 16°
2026-04-20 02:00 38.65472 -76.99128 3016 ft 182 kts 341°
2026-04-20 02:00 38.66568 -76.99661 3037 ft 160 kts 334°
2026-04-20 02:00 38.67605 -77.00249 2651 ft 163 kts 334°
2026-04-20 02:00 38.68636 -77.00845 2487 ft 165 kts 334°
2026-04-20 02:01 38.69701 -77.01461 2487 ft 167 kts 335°
2026-04-20 02:01 38.70750 -77.01959 2454 ft 152 kts 341°
2026-04-20 02:01 38.71730 -77.02245 2455 ft 140 kts 347°
2026-04-20 02:01 38.72685 -77.02440 2279 ft 138 kts 349°
2026-04-20 02:02 38.73636 -77.02589 2093 ft 137 kts 351°
2026-04-20 02:02 38.74577 -77.02705 1919 ft 136 kts 352°
2026-04-20 02:02 38.75522 -77.02805 1739 ft 136 kts 353°
2026-04-20 02:02 38.76465 -77.02900 1557 ft 136 kts 353°
2026-04-20 02:03 38.77409 -77.02994 1374 ft 135 kts 353°
2026-04-20 02:03 38.78347 -77.03088 1187 ft 135 kts 353°
2026-04-20 02:03 38.79275 -77.03181 1002 ft 134 kts 353°
2026-04-20 02:03 38.80212 -77.03275 820 ft 134 kts 353°
2026-04-20 02:04 38.81135 -77.03368 639 ft 133 kts 353°
2026-04-20 02:04 38.82069 -77.03462 456 ft 133 kts 354°
2026-04-20 02:04 38.82992 -77.03554 277 ft 133 kts 354°
2026-04-20 02:04 38.83909 -77.03648 100 ft 133 kts 354°
2026-04-20 02:05 38.84793 -77.03740 19 ft 102 kts 355°
2026-04-20 02:05 38.85209 -77.03781 20 ft 30 kts 355°
2026-04-20 02:05 38.85414 -77.03802 20 ft 20 kts 353°
2026-04-20 02:05 38.85507 -77.03861 20 ft 15 kts 312°
2026-04-20 02:06 38.85538 -77.03905 21 ft 0 kts 310°
2026-04-20 02:06 38.85547 -77.03919 21 ft 3 kts 310°
2026-04-20 02:07 38.85575 -77.03953 21 ft 7 kts 320°
2026-04-20 02:07 38.85627 -77.04005 21 ft 11 kts 321°
2026-04-20 02:07 38.85695 -77.04077 21 ft 11 kts 317°
2026-04-20 02:07 38.85732 -77.04146 21 ft 10 kts 284°
2026-04-20 02:08 38.85717 -77.04237 22 ft 8 kts 252°
2026-04-20 02:08 38.85683 -77.04261 22 ft 7 kts 181°
2026-04-20 02:08 38.85657 -77.04259 23 ft 0 kts 173°